Location: Arboyeti
(42.1122°N, 44.6017°E)
Time: 20:26:30
(UTC+00:00)

Cosmos 2084 - Pass Details

Date: 19 April 2021
Orbit: 545 x 636 km, 62.8° (Epoch: 18 May)

Event Time Altitude Azimuth Distance (km) Brightness Sun altitude
Exits shadow 23:47:29 71° 93° (E) 598 3.5 -24.1°
Drops below altitude 10° 23:51:28 10° 40° (NE) 1,881 7.1 -23.6°
Sets 23:53:45 0° 38° (NE) 2,799 8.3 -23.3°
